Location: Pel�-Koumbol�
(14.9505°N, 3.0798°W)
Time: 14:27:27
(UTC+00:00)

Cosmos 1535 Rocket - Pass Details

Date: 17 February 2020
Orbit: 947 x 1005 km, 83.0° (Epoch: 29 March)

Event Time Altitude Azimuth Distance (km) Brightness Sun altitude
Rises 05:01:09 0° 349° (N) 3,649 7.3 -23.4°
Reaches altitude 10° 05:03:42 10° 346° (NNW) 2,694 6.6 -22.8°
Maximum altitude 05:09:43 59° 268° (W) 1,089 4.4 -21.4°
Drops below altitude 10° 05:15:42 10° 190° (S) 2,664 6.8 -19.9°
Sets 05:18:12 0° 186° (S) 3,606 7.5 -19.3°
